This is the latest recevied weather packets stored in our database for station/object K5WNG. If no packets are shown the sender has not sent any weather packets the latest 1 day(s).
| Time | Temp. | Humidity | Pressure | Rain* | Wind** | Luminosity | Snow |
|---|---|---|---|---|---|---|---|
| 1778072416 | 23.33° C | 93% | 1009.5 hPa | 0 mm | - | 65 W/m² | - |
| 1778071816 | 23.33° C | 94% | 1009.3 hPa | 0 mm | - | 60 W/m² | - |
| 1778070916 | 22.78° C | 95% | 1009.2 hPa | 0 mm | - | 40 W/m² | - |
| 1778070020 | 22.78° C | 96% | 1009.2 hPa | 0 mm | - | 24 W/m² | - |
| 1778068517 | 23.33° C | 94% | 1009.1 hPa | 0 mm | - | 6 W/m² | - |
| 1778068220 | 23.33° C | 94% | 1009 hPa | 0 mm | - | 3 W/m² | - |
| 1778067917 | 23.33° C | 94% | 1009.1 hPa | 0 mm | - | 2 W/m² | - |
| 1778067321 | 23.33° C | 94% | 1009.2 hPa | 0 mm | - | 0 W/m² | - |
| 1778067018 | 23.33° C | 94% | 1009.2 hPa | 0 mm | - | 0 W/m² | - |
| 1778065518 | 23.33° C | 95% | 1009.1 hPa | 0 mm | - | 0 W/m² | - |
| 1778065218 | 23.33° C | 95% | 1009.1 hPa | 0 mm | - | 0 W/m² | - |
| 1778064921 | 23.33° C | 95% | 1009.1 hPa | 0 mm | - | 0 W/m² | - |
| 1778064618 | 23.33° C | 95% | 1009.1 hPa | 0 mm | - | 0 W/m² | - |
| 1778064021 | 23.33° C | 95% | 1009 hPa | 0 mm | - | 0 W/m² | - |
| 1778063418 | 23.33° C | 95% | 1008.9 hPa | 0 mm | - | 0 W/m² | - |
| 1778061918 | 23.33° C | 93% | 1008.7 hPa | 0 mm | - | 0 W/m² | - |
| 1778061016 | 23.33° C | 92% | 1008.4 hPa | 0 mm | - | 0 W/m² | - |
| 1778060716 | 23.33° C | 92% | 1008.4 hPa | 0 mm | - | 0 W/m² | - |
| 1778060116 | 23.33° C | 92% | 1008.3 hPa | 0 mm | - | 0 W/m² | - |
| 1778059817 | 23.33° C | 92% | 1008.3 hPa | 0 mm | - | 0 W/m² | - |
| 1778059519 | 23.33° C | 92% | 1008.2 hPa | 0 mm | - | 0 W/m² | - |
| 1778059216 | 23.33° C | 92% | 1008.1 hPa | 0 mm | - | 0 W/m² | - |
| 1778058916 | 23.33° C | 92% | 1008 hPa | 0 mm | - | 0 W/m² | - |
| 1778058317 | 23.33° C | 92% | 1007.8 hPa | 0 mm | - | 0 W/m² | - |
| 1778058017 | 23.33° C | 92% | 1007.8 hPa | 0 mm | - | 0 W/m² | - |
* Rain latest hour (hover to see other rain measurements)
** Current wind speed in m/s (hover to see current wind gust speed)